Weather History for KAFW - January, 2013

Change the Weather History Date:

Monday, January 7, 2013

  Actual Average Record
Temperature  
Mean Temperature 38 °F -  
Max Temperature 54 °F 54 °F 82 °F (2006)
Min Temperature 21 °F 33 °F 19 °F (2014)
Degree Days  
Heating Degree Days 28    
Moisture  
Dew Point 28 °F    
Average Humidity 68    
Maximum Humidity 92    
Minimum Humidity 41    
Precipitation  
Precipitation 0.00 in - - ()
Sea Level Pressure  
Sea Level Pressure 30.25 in    
Wind  
Wind Speed 2 mph (SE)    
Max Wind Speed 13 mph    
Max Gust Speed -    
Visibility 10 miles    
Events      
Averages and records for this station are not official NWS values.
T = Trace of Precipitation, MM = Missing Value Source: NWS Daily Summary

Daily Weather History Graph

Daily Weather History Graph

Search for Another Location

Airport or City:

Trip Planner

Search our weather history database for the weather conditions in past years. The results will help you decide how hot, cold, wet, or windy it might be!

Date:

Astronomy

Jan. 07, 2013 Rise Set
Actual Time 7:32 AM CST 5:38 PM CST
Civil Twilight 7:05 AM CST 6:05 PM CST
Nautical Twilight 6:35 AM CST 6:36 PM CST
Astronomical Twilight 6:05 AM CST 7:06 PM CST
Moon 3:01 AM CST (1/7) 1:48 PM CST (1/7)
Length of Visible Light 10h 59m
Length of Day
10h 05m
Waning Crescent, 22% of the Moon is Illuminated
Jan 7
Waning Crescent
Jan 11
New
Jan 18
First Quarter
Jan 26
Full
Feb 3
Last Quarter

Hourly Weather History & Observations

Time (CST) Temp. Windchill Dew Point Humidity Pressure Visibility Wind Dir Wind Speed Gust Speed Precip Events Conditions
12:53 AM 27.0 °F - 24.1 °F 89% 30.35 in 10.0 mi Calm Calm - N/A   Clear
1:53 AM 27.0 °F - 23.0 °F 85% 30.33 in 10.0 mi Calm Calm - N/A   Clear
2:53 AM 24.1 °F - 21.0 °F 88% 30.33 in 10.0 mi Calm Calm - N/A   Clear
3:53 AM 24.1 °F - 21.0 °F 88% 30.33 in 10.0 mi Calm Calm - N/A   Clear
4:53 AM 21.9 °F - 19.9 °F 92% 30.33 in 10.0 mi Calm Calm - N/A   Clear
5:53 AM 21.9 °F - 19.0 °F 89% 30.32 in 10.0 mi Calm Calm - N/A   Clear
6:53 AM 23.0 °F - 19.9 °F 88% 30.34 in 10.0 mi Calm Calm - N/A   Clear
7:53 AM 21.9 °F - 19.9 °F 92% 30.35 in 10.0 mi Calm Calm - N/A   Clear
8:53 AM 30.0 °F - 26.1 °F 85% 30.35 in 10.0 mi Calm Calm - N/A   Clear
9:53 AM 35.1 °F - 28.0 °F 76% 30.35 in 10.0 mi Calm Calm - N/A   Clear
10:53 AM 46.0 °F - 30.0 °F 54% 30.35 in 10.0 mi Calm Calm - N/A   Clear
11:53 AM 52.0 °F - 30.9 °F 45% 30.30 in 10.0 mi South 12.7 mph - N/A   Clear
12:53 PM 52.0 °F - 30.9 °F 45% 30.25 in 10.0 mi SSE 10.4 mph - N/A   Clear
1:53 PM 53.1 °F - 30.9 °F 43% 30.22 in 10.0 mi SE 11.5 mph - N/A   Clear
2:53 PM 54.0 °F - 30.9 °F 41% 30.19 in 10.0 mi SSE 11.5 mph - N/A   Clear
3:53 PM 52.0 °F - 30.0 °F 43% 30.18 in 10.0 mi SE 8.1 mph - N/A   Clear
4:53 PM 51.1 °F - 30.9 °F 46% 30.17 in 10.0 mi ESE 6.9 mph - N/A   Clear
5:53 PM 46.9 °F - 30.0 °F 52% 30.18 in 10.0 mi SSE 4.6 mph - N/A   Partly Cloudy
6:53 PM 45.0 °F - 30.9 °F 58% 30.18 in 10.0 mi Calm Calm - N/A   Scattered Clouds
7:53 PM 41.0 °F 39.0 °F 32.0 °F 70% 30.16 in 10.0 mi ESE 3.5 mph - N/A   Clear
8:53 PM 44.1 °F 41.5 °F 32.0 °F 63% 30.15 in 10.0 mi ESE 4.6 mph - N/A   Scattered Clouds
9:53 PM 39.9 °F - 32.0 °F 73% 30.15 in 10.0 mi Calm Calm - N/A   Mostly Cloudy
10:53 PM 41.0 °F - 32.0 °F 70% 30.12 in 10.0 mi Calm Calm - N/A   Mostly Cloudy
11:36 PM 44.6 °F - 33.8 °F 66% 30.10 in 10.0 mi Calm Calm - N/A   Mostly Cloudy
11:53 PM 44.1 °F - 32.0 °F 63% 30.12 in 10.0 mi Calm Calm - N/A   Overcast